KG7ADK Weather Reports


time (UTC)temp
C
wind
direction
speed
KPH
gust
KPH
rain 1hr
cm
rain 24hr
cm
rain mn
cm
humidity
%
barometer
mb
20260506033603 18 285 0.0 1.6 0.00 0.00 0.00 56 1014.4
20260506032703 18 285 0.0 1.6 0.00 0.00 0.00 54 1014.3
20260506031803 19 285 0.0 3.2 0.00 0.00 0.00 53 1014.2
20260506030903 20 286 0.0 3.2 0.00 0.00 0.00 54 1014.2
20260506030004 20 287 0.0 4.8 0.00 0.00 0.00 50 1014.1
20260506025403 19 0 0.0 0.0 0.00 0.00 0.00 50 1014.0
20260506024713 20 0 0.0 0.0 0.00 0.00 0.00 49 1013.9
20260506023603 20 0 0.0 0.0 0.00 0.00 0.00 48 1013.9
20260506022914 20 0 0.0 0.0 0.00 0.00 0.00 47 1013.9
20260506022013 20 0 0.0 0.0 0.00 0.00 0.00 49 1013.9
20260506020903 21 311 0.0 1.6 0.00 0.00 0.00 46 1013.7
20260506020003 21 311 0.0 1.6 0.00 0.00 0.00 46 1013.8
20260506015403 21 333 0.0 3.2 0.00 0.00 0.00 45 1013.8
20260506014713 21 334 0.0 3.2 0.00 0.00 0.00 44 1013.8
20260506013603 21 332 0.0 1.6 0.00 0.00 0.00 45 1013.7
20260506012703 21 346 0.0 3.2 0.00 0.00 0.00 44 1013.7
20260506012013 22 355 0.0 3.2 0.00 0.00 0.00 43 1013.6
20260506011114 22 356 0.0 1.6 0.00 0.00 0.00 44 1013.5
20260506010003 21 318 0.0 3.2 0.00 0.00 0.00 43 1013.4
20260506005403 21 291 1.6 6.4 0.00 0.00 0.00 46 1013.4
20260506004504 22 277 1.6 9.7 0.00 0.00 0.00 47 1013.4
20260506003603 22 285 1.6 4.8 0.00 0.00 0.00 44 1013.3
20260506002703 22 266 1.6 4.8 0.00 0.00 0.00 44 1013.3
20260506001803 22 272 1.6 8.0 0.00 0.00 0.00 44 1013.3
20260506001114 22 278 1.6 8.0 0.00 0.00 0.00 45 1013.1
20260506000213 21 98 0.0 4.8 0.00 0.00 0.00 51 1013.2
20260505235403 21 0 0.0 0.0 0.00 0.00 0.00 49 1013.1
20260505234503 21 0 0.0 0.0 0.00 0.00 0.00 52 1013.0
20260505233603 21 0 0.0 0.0 0.00 0.00 0.00 50 1013.1
20260505232703 22 0 0.0 0.0 0.00 0.00 0.00 46 1013.1
20260505231803 22 0 0.0 0.0 0.00 0.00 0.00 41 1013.1
20260505230903 23 0 0.0 0.0 0.00 0.00 0.00 36 1013.1
20260505230004 22 166 0.0 1.6 0.00 0.00 0.00 37 1013.1
20260505225403 23 162 0.0 1.6 0.00 0.00 0.00 35 1013.1
20260505224503 23 31 0.0 3.2 0.00 0.00 0.00 36 1013.2
20260505223603 23 327 1.6 3.2 0.00 0.00 0.00 35 1013.1
20260505222703 23 12 1.6 4.8 0.00 0.00 0.00 34 1013.1
20260505221803 23 349 1.6 4.8 0.00 0.00 0.00 34 1013.1
20260505220903 24 296 3.2 6.4 0.00 0.00 0.00 35 1013.1
20260505220003 24 99 3.2 6.4 0.00 0.00 0.00 34 1013.1
20260505215403 23 100 1.6 6.4 0.00 0.00 0.00 34 1013.2
20260505214503 23 326 1.6 6.4 0.00 0.00 0.00 33 1013.1
20260505213603 24 62 1.6 8.0 0.00 0.00 0.00 32 1013.1
20260505212703 24 97 1.6 4.8 0.00 0.00 0.00 36 1013.1
20260505211803 25 93 1.6 6.4 0.00 0.00 0.00 32 1013.1
20260505210903 26 96 1.6 6.4 0.00 0.00 0.00 30 1013.1
20260505210003 26 89 3.2 9.7 0.00 0.00 0.00 31 1013.1
20260505205403 25 328 1.6 6.4 0.00 0.00 0.00 32 1013.2
20260505204713 25 282 1.6 6.4 0.00 0.00 0.00 33 1013.2
20260505203603 25 21 3.2 11.3 0.00 0.00 0.00 35 1013.3
20260505202703 26 358 1.6 6.4 0.00 0.00 0.00 34 1013.3
20260505201803 25 17 1.6 9.7 0.00 0.00 0.00 36 1013.3
20260505200903 25 19 3.2 9.7 0.00 0.00 0.00 36 1013.5
20260505200003 25 77 1.6 6.4 0.00 0.00 0.00 34 1013.5
20260505195613 25 112 1.6 6.4 0.00 0.00 0.00 37 1013.5
20260505194503 24 79 3.2 6.4 0.00 0.00 0.00 38 1013.6
20260505193603 23 90 1.6 6.4 0.00 0.00 0.00 35 1013.6
20260505192703 23 81 3.2 9.7 0.00 0.00 0.00 39 1013.7
20260505191803 23 92 1.6 4.8 0.00 0.00 0.00 41 1013.6
20260505191114 23 91 3.2 6.4 0.00 0.00 0.00 37 1013.7
20260505190004 23 78 3.2 8.0 0.00 0.00 0.00 40 1013.8
20260505185403 23 56 1.6 6.4 0.00 0.00 0.00 41 1013.8
20260505184503 23 304 1.6 8.0 0.00 0.00 0.00 38 1013.8
20260505183603 23 94 1.6 4.8 0.00 0.00 0.00 37 1013.9
20260505182703 22 106 1.6 4.8 0.00 0.00 0.00 38 1013.9
20260505181803 22 132 1.6 4.8 0.00 0.00 0.00 38 1013.8
20260505180903 21 76 1.6 8.0 0.00 0.00 0.00 38 1013.9
20260505180003 21 125 1.6 6.4 0.00 0.00 0.00 39 1013.9
20260505175403 20 83 1.6 6.4 0.00 0.00 0.00 42 1013.8
20260505174503 20 189 1.6 3.2 0.00 0.00 0.00 41 1013.8
20260505173813 19 140 1.6 3.2 0.00 0.00 0.00 44 1013.8
20260505172703 18 353 1.6 3.2 0.00 0.00 0.00 47 1013.9
20260505171803 18 58 1.6 4.8 0.00 0.00 0.00 48 1013.9
20260505170903 18 334 0.0 3.2 0.00 0.00 0.00 50 1013.9
20260505170004 18 14 1.6 4.8 0.00 0.00 0.00 49 1013.9
20260505165403 18 50 1.6 4.8 0.00 0.00 0.00 46 1013.9
20260505164503 17 141 0.0 3.2 0.00 0.00 0.00 47 1013.9
20260505163603 17 43 0.0 3.2 0.00 0.00 0.00 44 1014.0
20260505162703 17 8 0.0 4.8 0.00 0.00 0.00 49 1014.0
20260505161803 16 65 0.0 3.2 0.00 0.00 0.00 49 1014.0
20260505160903 16 98 1.6 3.2 0.00 0.00 0.00 46 1014.0
20260505152704 13 0 0.0 0.0 0.00 0.00 0.00 60 1014.0
20260505151803 13 0 0.0 0.0 0.00 0.00 0.00 57 1013.9
20260505150903 13 0 0.0 0.0 0.00 0.00 0.00 61 1013.8
20260505124503 2 0 0.0 0.0 0.00 0.00 0.00 78 1012.6
20260505123603 2 0 0.0 0.0 0.00 0.00 0.00 79 1012.4
20260505122703 2 0 0.0 0.0 0.00 0.00 0.00 78 1012.4
20260505121803 2 0 0.0 0.0 0.00 0.00 0.00 76 1012.5
20260505120903 3 0 0.0 0.0 0.00 0.00 0.00 76 1012.5
20260505120004 2 0 0.0 0.0 0.00 0.00 0.00 76 1012.4
20260505115403 2 0 0.0 0.0 0.00 0.00 0.00 76 1012.4
20260505114503 2 0 0.0 0.0 0.00 0.00 0.00 76 1012.4
20260505113813 2 0 0.0 0.0 0.00 0.00 0.00 76 1012.2
20260505112914 2 0 0.0 0.0 0.00 0.00 0.00 76 1012.2
20260505111803 3 0 0.0 0.0 0.00 0.00 0.00 75 1012.2
20260505111113 3 0 0.0 0.0 0.00 0.00 0.00 75 1012.2
20260505110214 3 0 0.0 0.0 0.00 0.00 0.00 75 1012.1
20260505101803 4 244 0.0 1.6 0.00 0.00 0.00 74 1012.2
20260505101115 4 0 0.0 0.0 0.00 0.00 0.00 74 1012.1
20260505100003 4 0 0.0 0.0 0.00 0.00 0.00 74 1012.1
20260505095403 4 0 0.0 0.0 0.00 0.00 0.00 73 1012.0
20260505094713 5 0 0.0 0.0 0.00 0.00 0.00 73 1012.0
20260505093603 5 244 0.0 1.6 0.00 0.00 0.00 73 1012.0
20260505092703 5 244 0.0 1.6 0.00 0.00 0.00 73 1012.0
20260505091803 5 0 0.0 0.0 0.00 0.00 0.00 71 1012.0
20260505090903 6 240 0.0 1.6 0.00 0.00 0.00 72 1012.0
20260505090004 6 212 0.0 1.6 0.00 0.00 0.00 70 1012.1
20260505085403 6 0 0.0 0.0 0.00 0.00 0.00 69 1012.1
20260505084503 6 212 0.0 1.6 0.00 0.00 0.00 69 1012.1
20260505083603 7 212 0.0 1.6 0.00 0.00 0.00 67 1012.2
20260505082703 7 0 0.0 0.0 0.00 0.00 0.00 66 1012.1
20260505081803 7 0 0.0 0.0 0.00 0.00 0.00 65 1011.9
20260505080903 8 0 0.0 0.0 0.00 0.00 0.00 64 1011.8
20260505080003 8 212 0.0 1.6 0.00 0.00 0.00 62 1011.9
20260505075612 8 0 0.0 0.0 0.00 0.00 0.00 62 1011.8
20260505074714 9 216 0.0 1.6 0.00 0.00 0.00 61 1011.8
20260505073603 10 229 0.0 1.6 0.00 0.00 0.00 57 1011.7
20260505072704 11 229 0.0 1.6 0.00 0.00 0.00 54 1011.6
20260505072014 11 229 0.0 1.6 0.00 0.00 0.00 53 1011.7
20260505070903 12 0 0.0 0.0 0.00 0.00 0.00 52 1011.7
20260505070215 12 0 0.0 0.0 0.00 0.00 0.00 51 1011.5
20260505065403 13 302 0.0 1.6 0.00 0.00 0.00 50 1011.5
20260505064503 14 302 0.0 1.6 0.00 0.00 0.00 49 1011.5
20260505063813 14 302 0.0 3.2 0.00 0.00 0.00 49 1011.4
20260505062703 15 297 1.6 4.8 0.00 0.00 0.00 48 1011.4
20260505061803 15 292 1.6 4.8 0.00 0.00 0.00 47 1011.5
20260505060903 15 301 1.6 4.8 0.00 0.00 0.00 46 1011.4
20260505060214 15 292 1.6 6.4 0.00 0.00 0.00 46 1011.4
20260505055404 15 288 1.6 4.8 0.00 0.00 0.00 46 1011.4
20260505054504 15 289 1.6 4.8 0.00 0.00 0.00 46 1011.5
20260505053603 15 277 1.6 6.4 0.00 0.00 0.00 47 1011.5
20260505052703 15 271 1.6 4.8 0.00 0.00 0.00 47 1011.6
20260505051803 15 277 1.6 6.4 0.00 0.00 0.00 48 1011.6
20260505050904 16 277 1.6 4.8 0.00 0.00 0.00 47 1011.7
20260505041114 16 288 3.2 8.0 0.00 0.00 0.00 49 1011.0
20260505040004 16 285 1.6 6.4 0.00 0.00 0.00 49 1010.9
20260505035404 16 281 1.6 4.8 0.00 0.00 0.00 48 1010.8
20260505034714 17 281 1.6 8.0 0.00 0.00 0.00 46 1010.8